DAATDAUI

Guest
Details From DAAT - TAMANRASSET
To DAUI - IN SALAH
Flight Number -
Tags generated
Created
Modified
Stats Distance 313 nm / 580 km
Max Altitude 10,500 ft / 3,200 m
Waypoints 4
Social Downloads 0
Likes 0
Share VATSIM

Download

Looking for another format? Having issues loading an existing format? Contact us
Advertisement - Login to hide

Notes

Basic altitude profile: - Ascent Rate: 2500ft/min - Ascent Speed: 290kts - Cruise Altitude: 30000ft - Cruise Speed: 470kts - Descent Rate: 2000ft/min - Descent Speed: 275kts Options: - Use NATs: no - Use PACOTS: no - Use low airways: yes - Use high airways: yes

Route

DAAT TMS J62 NSL DAUI

ID Type Via Altitude Latitude Longitude Leg Dist Tot Dist Heading (true) Name
O DAAT APT - 0 ft / 0 m 22.81038˚ 5.44440˚ - 0 nm - TAMANRASSET
TMS VOR - 800 ft / 244 m 22.84278˚ 5.46472˚ 2 nm 2 nm 30° / 30° TAMANRASSET VOR-DME
NSL VOR J62 (AWY-LO) 10,500 ft / 3,200 m 27.23667˚ 2.49250˚ 309 nm 311 nm 329° / 328° IN SALAH VOR-DME
O DAUI APT - 0 ft / 0 m 27.25102˚ 2.51202˚ 1 nm 313 nm 50° / 50° IN SALAH

Altitude Profile

Advertisement - Login to hide

Weather


0- 5 10 15 20 25 30 35+ Temperature / ° C

Clouds and Precipitation
Forecast for 2018-05-23 12:00 UTC. Updated 4 hours ago

Ground ~20,000 ft ~40,000 ft Winds

DAAT

Details ICAO DAAT (TMR)
Name TAMANRASSET
Region Algeria
Timezone Africa/Algiers (UTC+1.0)
Stats Elevation 4,518 ft / 1,377 m (AMSL)
Location 22.810384° 5.444403°
Runways 2
Magnetic Variation 0.638° E

METAR

DAAT 231500Z 12007KT 070V170 5000 FEW046 SCT100 37/// Q1021

Decode

TAF

TAF AMD DAAT 231428Z 2314/2412 18014KT 6000 FEW046 SCT100 PROB40 TEMPO 2314/2318 22015G30KT SCT040TCU FEW053CB BECMG 2320/2323 07010KT

Decode

Departure Runways

ID Width Length Bearing (true) Bearing (mag) Surface Threshold Offset Overrun Length
02 148 ft / 45 m 11,884 ft / 3,622 m 22.21° 21.57° Asphalt 0 ft / 0 m 0 ft / 0 m
08 148 ft / 45 m 10,169 ft / 3,099 m 81.74° 81.10° Asphalt 0 ft / 0 m 0 ft / 0 m
20 148 ft / 45 m 11,884 ft / 3,622 m 202.22° 201.58° Asphalt 0 ft / 0 m 0 ft / 0 m
26 148 ft / 45 m 10,169 ft / 3,099 m 261.75° 261.11° Asphalt 0 ft / 0 m 0 ft / 0 m

DAUI

Details ICAO DAUI (INZ)
Name IN SALAH
Region Algeria
Timezone Africa/Algiers (UTC+1.0)
Stats Elevation 896 ft / 273 m (AMSL)
Location 27.251021° 2.512018°
Runways 1
Magnetic Variation 0.481° E

METAR

DAUI 231500Z 31008KT CAVOK 40/// Q1011

Decode

TAF

TAF DAUI 231100Z 2312/2412 05010KT 9000 NSC BECMG 2313/2316 22012KT PROB30 TEMPO 2314/2318 4000 HZ FEW046TCU BECMG 2319/2322 VRB02KT

Decode

Destination Runways

ID Width Length Bearing (true) Bearing (mag) Surface Threshold Offset Overrun Length
05 148 ft / 45 m 9,827 ft / 2,995 m 50.81° 50.33° Asphalt 0 ft / 0 m 150 ft / 46 m
23 148 ft / 45 m 9,827 ft / 2,995 m 230.82° 230.34° Asphalt 0 ft / 0 m 150 ft / 46 m

Popular Alternatives